TimeCST,TemperatureF,Dew PointF,Humidity,Sea Level PressureIn,VisibilityMPH,Wind Direction,Wind SpeedMPH,Gust SpeedMPH,PrecipitationIn,Events,Conditions,WindDirDegrees,DateUTC
12:15 AM,57.2,55.4,94,29.89,4.0,SSW,5.8,-,N/A,,Overcast,210,2012-12-08 06:15:00
12:55 AM,57.2,55.4,94,29.89,4.0,SW,8.1,-,N/A,,Overcast,230,2012-12-08 06:55:00
1:15 AM,57.2,55.4,94,29.89,4.0,WSW,5.8,-,N/A,,Mostly Cloudy,240,2012-12-08 07:15:00
1:35 AM,57.2,55.4,94,29.89,4.0,WSW,4.6,-,N/A,,Overcast,250,2012-12-08 07:35:00
1:55 AM,57.2,55.4,94,29.89,4.0,WSW,4.6,-,N/A,,Mostly Cloudy,240,2012-12-08 07:55:00
2:15 AM,57.2,55.4,94,29.89,3.0,SW,4.6,-,N/A,,Mostly Cloudy,230,2012-12-08 08:15:00
2:35 AM,55.4,55.4,100,29.89,3.0,SSW,4.6,-,N/A,,Mostly Cloudy,210,2012-12-08 08:35:00
3:15 AM,55.4,55.4,100,29.89,3.0,South,5.8,-,N/A,,Mostly Cloudy,190,2012-12-08 09:15:00
3:35 AM,55.4,55.4,100,29.88,3.0,SW,3.5,-,N/A,,Mostly Cloudy,220,2012-12-08 09:35:00
3:55 AM,55.4,55.4,100,29.89,3.0,WNW,3.5,-,N/A,,Scattered Clouds,290,2012-12-08 09:55:00
4:15 AM,55.4,55.4,100,29.89,3.0,Calm,Calm,-,N/A,,Scattered Clouds,0,2012-12-08 10:15:00
4:35 AM,55.4,53.6,94,29.89,2.5,Calm,Calm,-,N/A,,Mostly Cloudy,0,2012-12-08 10:35:00
4:55 AM,55.4,53.6,94,29.89,2.0,SSW,3.5,-,N/A,,Mostly Cloudy,200,2012-12-08 10:55:00
5:16 AM,55.4,53.6,94,29.90,2.0,Calm,Calm,-,N/A,,Overcast,0,2012-12-08 11:16:00
5:35 AM,55.4,53.6,94,29.91,1.8,South,3.5,-,N/A,,Mostly Cloudy,190,2012-12-08 11:35:00
5:55 AM,55.4,55.4,100,29.91,2.0,Calm,Calm,-,N/A,,Mostly Cloudy,0,2012-12-08 11:55:00
6:35 AM,55.4,53.6,94,29.93,2.5,Calm,Calm,-,N/A,,Mostly Cloudy,0,2012-12-08 12:35:00
6:55 AM,53.6,53.6,100,29.93,2.0,WNW,3.5,-,N/A,,Overcast,300,2012-12-08 12:55:00
7:35 AM,55.4,53.6,94,29.94,1.8,Calm,Calm,-,N/A,,Mostly Cloudy,0,2012-12-08 13:35:00
7:55 AM,53.6,51.8,94,29.93,1.5,North,5.8,-,N/A,,Mostly Cloudy,350,2012-12-08 13:55:00
8:35 AM,55.4,53.6,94,29.94,2.0,NNW,3.5,-,N/A,,Scattered Clouds,340,2012-12-08 14:35:00
8:55 AM,55.4,55.4,100,29.94,2.5,NNE,4.6,-,N/A,,Scattered Clouds,20,2012-12-08 14:55:00
9:15 AM,57.2,55.4,94,29.95,5.0,North,8.1,-,N/A,,Scattered Clouds,360,2012-12-08 15:15:00
9:55 AM,57.2,53.6,88,29.97,7.0,North,8.1,-,N/A,,Mostly Cloudy,10,2012-12-08 15:55:00
10:15 AM,57.2,53.6,88,29.97,7.0,NNE,8.1,-,N/A,,Overcast,20,2012-12-08 16:15:00
10:36 AM,59.0,53.6,82,29.97,9.0,NE,10.4,-,N/A,,Mostly Cloudy,40,2012-12-08 16:36:00
10:55 AM,59.0,53.6,82,29.96,9.0,NE,8.1,-,N/A,,Overcast,40,2012-12-08 16:55:00
11:35 AM,59.0,53.6,82,29.95,8.0,NE,11.5,-,N/A,,Mostly Cloudy,50,2012-12-08 17:35:00
11:56 AM,59.0,53.6,82,29.94,7.0,NNE,10.4,-,N/A,,Mostly Cloudy,30,2012-12-08 17:56:00
12:15 PM,57.2,53.6,88,29.94,7.0,NNE,8.1,-,N/A,,Overcast,30,2012-12-08 18:15:00
12:35 PM,57.2,53.6,88,29.93,7.0,NNE,8.1,-,N/A,,Overcast,30,2012-12-08 18:35:00
1:15 PM,60.8,53.6,77,29.92,7.0,NE,9.2,-,N/A,,Mostly Cloudy,40,2012-12-08 19:15:00
1:35 PM,59.0,53.6,82,29.92,7.0,NNE,8.1,-,N/A,,Overcast,20,2012-12-08 19:35:00
1:55 PM,59.0,53.6,82,29.92,7.0,NNE,8.1,-,N/A,,Mostly Cloudy,20,2012-12-08 19:55:00
2:35 PM,59.0,53.6,82,29.91,8.0,NNE,5.8,-,N/A,,Mostly Cloudy,20,2012-12-08 20:35:00
2:56 PM,59.0,53.6,82,29.91,8.0,North,9.2,-,N/A,,Mostly Cloudy,10,2012-12-08 20:56:00
3:15 PM,59.0,53.6,82,29.91,8.0,North,6.9,-,N/A,,Overcast,10,2012-12-08 21:15:00
3:35 PM,59.0,53.6,82,29.92,8.0,North,5.8,-,N/A,,Overcast,10,2012-12-08 21:35:00
4:15 PM,57.2,53.6,88,29.92,5.0,North,6.9,-,N/A,,Mostly Cloudy,10,2012-12-08 22:15:00
4:35 PM,57.2,53.6,88,29.92,6.0,NNE,10.4,-,N/A,,Mostly Cloudy,30,2012-12-08 22:35:00
4:55 PM,57.2,53.6,88,29.92,7.0,NE,10.4,-,N/A,,Mostly Cloudy,50,2012-12-08 22:55:00
4:56 PM,57.2,53.6,88,29.92,7.0,NE,10.4,-,N/A,,Mostly Cloudy,50,2012-12-08 22:56:00
5:35 PM,55.4,51.8,88,29.92,3.0,ENE,11.5,-,N/A,,Partly Cloudy,60,2012-12-08 23:35:00
5:55 PM,55.4,51.8,88,29.92,3.0,ENE,13.8,-,N/A,,Partly Cloudy,60,2012-12-08 23:55:00
6:16 PM,55.4,51.8,88,29.92,3.0,NE,12.7,-,N/A,,Scattered Clouds,50,2012-12-09 00:16:00
6:35 PM,55.4,51.8,88,29.93,1.0,NE,10.4,-,N/A,,Overcast,50,2012-12-09 00:35:00
6:55 PM,53.6,51.8,94,29.93,1.2,NE,13.8,-,N/A,,Overcast,50,2012-12-09 00:55:00
7:55 PM,53.6,50.0,88,29.94,1.2,NE,11.5,-,N/A,,Overcast,50,2012-12-09 01:55:00
8:15 PM,53.6,50.0,88,29.94,1.8,ENE,10.4,-,N/A,,Overcast,60,2012-12-09 02:15:00
8:36 PM,53.6,50.0,88,29.95,1.8,NNE,5.8,-,N/A,,Overcast,30,2012-12-09 02:36:00
8:55 PM,53.6,50.0,88,29.94,2.5,ENE,9.2,-,N/A,,Overcast,60,2012-12-09 02:55:00
9:15 PM,53.6,50.0,88,29.94,1.8,ENE,6.9,-,N/A,,Overcast,60,2012-12-09 03:15:00
9:55 PM,53.6,50.0,88,29.93,2.0,ENE,9.2,-,N/A,,Overcast,60,2012-12-09 03:55:00
10:35 PM,53.6,50.0,88,29.92,1.2,ENE,8.1,-,N/A,,Overcast,70,2012-12-09 04:35:00
11:15 PM,53.6,50.0,88,29.91,1.2,ENE,9.2,-,N/A,,Overcast,60,2012-12-09 05:15:00
11:35 PM,53.6,51.8,94,29.91,1.8,ENE,9.2,-,N/A,Thunderstorm,Thunderstorm,60,2012-12-09 05:35:00
11:55 PM,51.8,51.8,100,29.91,3.0,ENE,10.4,-,N/A,Thunderstorm,Thunderstorm,60,2012-12-09 05:55:00